Orbital Elements at Epoch 2459200.5 (2020-Dec-17.0) TDB
Reference: JPL 33 (heliocentric ecliptic J2000)
Element | Value | Uncertainty (1-sigma) | Units |
e | .1187582077954076 | 1.8309e-08 | |
a | 2.407279609930941 | 7.262e-09 | au |
q | 2.121395397793115 | 4.5087e-08 | au |
i | 12.19572290776824 | 1.4748e-06 | deg |
node | 105.4040571059352 | 8.6192e-06 | deg |
peri | 22.4102643137461 | 1.0946e-05 | deg |
M | 13.74995909071508 | 1.0556e-05 | deg |
tp | 2459148.394071631814 (2020-Oct-25.89407163) | 3.9927e-05 | TDB |
period | 1364.232001622006 3.74 | 6.1732e-06 1.69e-08 | d yr |
n | .2638847348339412 | 1.1941e-09 | deg/d |
Q | 2.693163822068767 | 8.1245e-09 | au |
|
| | Orbit Determination Parameters
Additional Information
|